Date,TemperatureHighF,TemperatureAvgF,TemperatureLowF,DewpointHighF,DewpointAvgF,DewpointLowF,HumidityHigh,HumidityAvg,HumidityLow,PressureMaxIn,PressureMinIn,WindSpeedMaxMPH,WindSpeedAvgMPH,GustSpeedMaxMPH,PrecipitationSumIn
2013-1-1,26.0,8.7,0.0,7.0,-3.1,-9.0,87,61,27,0.00,40.00,3,2,7,0.00
2013-1-2,25.0,9.1,-1.0,1.0,-5.8,-11.0,71,52,29,0.00,40.00,5,2,10,0.00
2013-1-3,26.0,9.4,-3.0,-4.0,-9.0,-14.0,59,44,23,0.00,40.00,3,2,4,0.00
2013-1-4,44.0,22.1,9.0,8.0,2.1,-6.0,63,43,22,0.00,40.00,3,2,4,0.03
2013-1-5,41.0,23.6,11.0,4.0,-1.0,-5.0,48,35,17,0.00,40.00,3,2,5,0.01
2013-1-6,40.0,23.2,11.0,5.0,-1.1,-8.0,49,36,17,0.00,40.00,3,2,4,0.00
2013-1-7,42.0,24.7,14.0,6.0,1.0,-4.0,53,37,19,0.00,40.00,3,2,11,0.00
2013-1-8,43.0,29.7,21.0,14.0,4.4,-13.0,59,36,13,0.00,40.00,6,3,12,0.00
2013-1-9,43.0,27.8,17.0,13.0,7.4,3.0,59,43,25,0.00,40.00,3,2,4,0.00
2013-1-10,36.0,26.1,19.0,9.0,5.7,3.0,59,42,25,0.00,40.00,3,2,12,0.00
2013-1-11,21.0,15.1,2.0,18.0,0.6,-14.0,90,55,26,0.00,40.00,5,3,17,0.00
2013-1-12,16.0,2.8,-8.0,-8.0,-16.1,-20.0,62,41,20,0.00,40.00,6,2,12,0.00
2013-1-13,8.0,-1.6,-10.0,-4.0,-13.2,-20.0,72,58,39,0.00,40.00,2,2,4,0.00
2013-1-14,10.0,-0.8,-8.0,-5.0,-11.8,-17.0,74,60,38,0.00,40.00,3,2,9,0.00
2013-1-15,29.0,9.9,-7.0,7.0,-7.0,-21.0,65,47,31,0.00,40.00,6,3,17,0.00
2013-1-16,43.0,25.2,12.0,17.0,10.9,4.0,72,56,35,0.00,40.00,3,2,5,0.00
2013-1-17,43.0,25.1,14.0,15.0,11.2,8.0,78,58,27,0.00,40.00,3,2,5,0.00
2013-1-18,44.0,27.7,16.0,9.0,2.3,-6.0,68,37,16,0.00,40.00,4,2,11,0.00
2013-1-19,48.0,30.2,17.0,8.0,0.5,-3.0,42,29,16,0.00,40.00,3,2,11,0.00
2013-1-20,44.0,31.1,19.0,2.0,-2.6,-10.0,42,24,13,0.00,40.00,5,2,9,0.00
2013-1-21,47.0,29.9,17.0,7.0,2.2,-3.0,50,32,17,0.00,40.00,5,3,10,0.00
2013-1-22,52.0,36.9,21.0,-1.0,-8.5,-16.0,34,15,6,0.00,40.00,7,3,14,0.00
2013-1-23,56.0,38.1,23.0,-3.0,-8.0,-15.0,30,15,6,0.00,40.00,8,3,16,0.00
2013-1-24,49.0,40.9,33.0,24.0,9.3,-9.0,60,31,10,0.00,40.00,8,4,18,0.00
2013-1-25,46.0,37.1,29.0,26.0,24.4,22.0,78,61,44,0.00,40.00,7,3,13,0.00
2013-1-26,43.0,34.3,28.0,32.0,25.0,18.0,99,71,45,0.00,40.00,4,2,16,0.00
2013-1-27,45.0,35.8,27.0,31.0,23.1,17.0,99,64,32,0.00,40.00,6,3,19,0.14
2013-1-28,36.0,27.2,18.0,30.0,20.8,10.0,97,77,57,0.00,40.00,7,2,12,0.01
2013-1-29,24.0,14.7,2.0,15.0,-4.6,-17.0,83,45,18,0.00,40.00,5,3,10,0.01
2013-1-30,32.0,17.2,2.0,8.0,-1.2,-16.0,60,44,28,0.00,40.00,9,5,16,0.00
2013-1-31,37.0,30.0,23.0,11.0,7.6,2.0,48,39,31,0.00,40.00,9,6,23,0.00